Simultaneous Nadir Overpasses (SNOs) Predictions

Prediction of SNOs between LANDSAT-8 and NOAA-19 Satellite Orbit:

Table of predicted SNOs for the next 14.0 days since TLE Epoch: 9/11/2020
Index Date (LANDSAT-8) Time (LANDSAT-8) Lat,Lon (LANDSAT-8) SZA (LANDSAT-8 ) Date (NOAA-19) Time (NOAA-19) Lat,Lon (NOAA-19) SZA (NOAA-19 ) Distance(km) Time Diff (sec)
1 09/13/2020 11:39:32 -79.94,-147.68 102.40 09/13/2020 11:38:20 -80.04,-148.85 102.44 25.07 72
2 09/13/2020 12:28:58 79.94, 19.95 77.61 09/13/2020 12:29:21 79.92, 19.89 77.60 1.96 23
3 09/15/2020 18:02:43 -79.95, 116.64 101.50 09/15/2020 18:02:31 -79.93, 116.60 101.52 2.68 12
4 09/17/2020 23:36:27 79.95,-146.77 79.39 09/17/2020 23:35:52 79.93,-146.67 79.37 3.29 35
5 09/18/2020 00:25:55 -79.93, 20.66 100.64 09/18/2020 00:26:46 -79.92, 20.79 100.62 2.96 51
6 09/20/2020 05:10:13 -79.94, -50.36 99.76 09/20/2020 05:09:03 -79.96, -50.30 99.76 3.27 70
7 09/20/2020 05:59:39 79.93, 117.23 80.24 09/20/2020 06:00:08 79.94, 117.19 80.26 1.81 29
8 09/22/2020 11:33:24 -79.94,-146.08 98.85 09/22/2020 11:33:18 -79.95,-146.12 98.85 1.04 6
9 09/24/2020 17:07:08 79.94, -49.56 82.02 09/24/2020 17:06:39 79.96, -49.52 82.04 2.87 29
